Location: Camerons Lookout
(40.9833°S, 175.9333°E)
Time: 04:25:47
(UTC+00:00)

USA 267 - Visible Passes

Search period start: 21 April 2026 00:00
Search period end: 01 May 2026 00:00
Orbit: 1101 x 1107 km, 123.0° (Epoch: 10 January)

Date Brightness Start Highest point End Pass type
(mag) Time Alt. Az. Time Alt. Az. Time Alt. Az.
21 Apr 4.8 06:28:41 10° SE 06:33:27 22° S 06:38:12 10° SW visible
21 Apr 4.2 08:15:20 33° SSE 08:15:20 33° SSE 08:20:55 10° SW visible
21 Apr 5.4 10:02:41 19° SW 10:02:41 19° SW 10:04:15 10° SW visible
22 Apr 4.6 07:30:52 21° SE 07:32:58 25° SSE 07:38:07 10° SW visible
22 Apr 4.8 09:18:13 29° SSW 09:18:13 29° SSW 09:21:21 10° SW visible
23 Apr 4.8 06:46:24 11° SE 06:50:56 22° S 06:55:42 10° SW visible
23 Apr 4.4 08:33:45 32° S 08:33:45 32° S 08:38:24 10° SW visible
23 Apr 5.7 10:21:06 13° SW 10:21:06 13° SW 10:21:44 10° SW visible
24 Apr 4.8 06:04:04 10° SE 06:08:55 22° S 06:13:46 10° SW visible
24 Apr 4.5 07:49:16 24° SSE 07:50:27 25° SSE 07:55:36 10° SW visible
24 Apr 5.1 09:36:37 22° SSW 09:36:37 22° SSW 09:38:50 10° SW visible
25 Apr 4.8 07:04:47 14° SE 07:08:24 22° S 07:13:10 10° SW visible
25 Apr 4.7 08:52:08 28° S 08:52:08 28° S 08:55:53 10° SW visible
26 Apr 4.8 06:21:33 10° SE 06:26:24 22° S 06:31:14 10° SW visible
26 Apr 4.6 08:07:38 25° SSE 08:07:56 25° SSE 08:13:05 10° SW visible
26 Apr 5.5 09:54:59 17° SW 09:54:59 17° SW 09:56:19 10° SW visible
27 Apr 4.8 07:23:08 17° SE 07:25:53 22° S 07:30:39 10° SW visible
27 Apr 5.0 09:10:29 24° SSW 09:10:29 24° SSW 09:13:22 10° SW visible
28 Apr 4.9 06:39:02 10° SE 06:43:52 22° S 06:48:43 10° SW visible
28 Apr 4.7 08:25:59 25° S 08:25:59 25° S 08:30:34 10° SW visible
28 Apr 5.8 10:13:20 12° SW 10:13:20 12° SW 10:13:48 10° SW visible
29 Apr 4.7 05:56:29 10° SE 06:01:48 27° SSW 06:07:06 10° WSW visible
29 Apr 4.8 07:41:29 19° SSE 07:43:22 22° S 07:48:08 10° SW visible
29 Apr 5.3 09:28:50 19° SSW 09:28:50 19° SSW 09:30:51 10° SW visible
30 Apr 4.9 06:56:59 12° SE 07:01:21 22° S 07:06:11 10° SW visible
30 Apr 4.9 08:44:20 23° S 08:44:20 23° S 08:48:03 10° SW visible
